Tracking 25711 objects as of 22-May-2022
HD Live streaming from Space Station
objects crossing your sky now

ONEWEB-0353

Track ONEWEB-0353 now!
10-day predictions
ONEWEB-0353 is classified as:


NORAD ID: 49282
Int'l Code: 2021-090D
Perigee: 1,186.8 km
Apogee: 1,189.9 km
Inclination: 87.9 °
Period: 109.0 minutes
Semi major axis: 7559 km
RCS: Unknown
Launch date: October 14, 2021
Source: United Kingdom (UK)
Launch site: VOSTOCHNY COSMODROME (VOSTO)
aabbcc
Your satellite tracking list
Your tracking list is empty




NASA's NSSDC Master Catalog

Two Line Element Set (TLE):
1 49282U 21090D   22142.25001157 -.00007409  00000-0 -18231-1 0  9997
2 49282  87.9354 225.2287 0002033  98.9096 153.8687 13.20916114 33518
Source of the keplerian elements: AFSPC